Total_Precipitation_Accumulation
0.29 0.41 0.53 0.51 0.52 0.56 0.50 0.46 0.44 0.42 0.35 0.33 0.31 0.27 0.25 0.23 0.23 0.21 0.18 0.18 0.18 0.19 0.17 0.18 0.22 0.23 0.24 0.23 0.26 0.32 0.36 0.44 0.53 0.61 0.75 0.96 1.24 1.35 1.44 1.40 1.22 1.16 1.28 1.52
0.34 0.29 0.27 0.33 0.41 0.51 0.50 0.51 0.46 0.43 0.29 0.26 0.27 0.23 0.20 0.19 0.22 0.21 0.17 0.16 0.14 0.13 0.11 0.10 0.12 0.15 0.16 0.16 0.18 0.24 0.32 0.42 0.51 0.60 0.77 0.94 1.08 1.08 1.26 1.41 1.39 1.30 1.29 1.44
0.30 0.23 0.22 0.30 0.39 0.49 0.49 0.45 0.45 0.45 0.30 0.22 0.22 0.23 0.16 0.15 0.18 0.18 0.17 0.15 0.14 0.13 0.10 0.09 0.09 0.10 0.10 0.12 0.13 0.17 0.24 0.35 0.48 0.64 0.87 1.09 1.27 1.36 1.42 1.35 1.43 1.44 1.37 1.41
0.35 0.26 0.23 0.31 0.37 0.38 0.43 0.28 0.25 0.28 0.33 0.30 0.28 0.31 0.19 0.19 0.23 0.24 0.23 0.19 0.17 0.15 0.11 0.10 0.09 0.10 0.10 0.10 0.10 0.14 0.23 0.38 0.59 0.80 1.06 1.31 1.51 1.55 1.44 1.48 1.51 1.39 1.33 1.30
0.34 0.25 0.22 0.25 0.26 0.25 0.30 0.22 0.16 0.20 0.25 0.21 0.20 0.26 0.21 0.25 0.33 0.34 0.31 0.27 0.21 0.18 0.15 0.14 0.13 0.16 0.17 0.17 0.18 0.25 0.45 0.70 0.96 1.17 1.43 1.72 1.72 1.61 1.51 1.51 1.47 1.42 1.43 1.40
0.29 0.23 0.23 0.20 0.20 0.19 0.22 0.19 0.18 0.20 0.23 0.19 0.14 0.21 0.28 0.30 0.34 0.38 0.37 0.31 0.24 0.20 0.23 0.28 0.33 0.39 0.44 0.47 0.61 0.81 1.08 1.27 1.36 1.48 1.64 1.76 1.73 1.74 1.68 1.49 1.40 1.39 1.43 1.49
0.22 0.21 0.18 0.14 0.16 0.16 0.16 0.18 0.27 0.30 0.29 0.23 0.16 0.30 0.39 0.35 0.30 0.30 0.31 0.26 0.20 0.24 0.34 0.46 0.61 0.74 0.85 0.97 1.11 1.24 1.43 1.59 1.54 1.51 1.55 1.59 1.60 1.59 1.57 1.51 1.41 1.35 1.36 1.37
0.22 0.20 0.14 0.11 0.12 0.12 0.13 0.19 0.36 0.44 0.34 0.29 0.29 0.49 0.53 0.42 0.31 0.23 0.18 0.17 0.25 0.38 0.52 0.63 0.72 0.83 1.00 1.14 1.20 1.21 1.32 1.43 1.40 1.38 1.34 1.31 1.37 1.40 1.35 1.27 1.25 1.28 1.35 1.33
0.16 0.11 0.08 0.07 0.08 0.08 0.11 0.14 0.20 0.33 0.27 0.26 0.38 0.64 0.58 0.38 0.32 0.26 0.22 0.26 0.39 0.58 0.80 0.94 1.05 1.17 1.22 1.25 1.31 1.23 1.23 1.28 1.29 1.23 1.14 1.13 1.18 1.23 1.25 1.19 1.20 1.18 1.17 1.09
0.09 0.07 0.05 0.04 0.05 0.07 0.13 0.19 0.28 0.46 0.51 0.49 0.56 0.67 0.59 0.47 0.43 0.45 0.52 0.62 0.68 0.78 1.04 1.33 1.58 1.75 1.57 1.31 1.20 1.15 1.08 1.09 1.18 1.16 1.09 1.04 1.12 1.13 1.11 1.14 1.11 1.10 1.10 1.01
0.06 0.06 0.04 0.03 0.06 0.10 0.17 0.28 0.36 0.49 0.59 0.73 0.90 1.00 0.84 0.86 0.88 0.96 1.06 1.10 1.11 1.21 1.19 1.35 1.54 1.71 1.61 1.30 1.07 1.08 1.09 1.05 1.03 1.03 1.05 1.04 1.01 0.91 0.90 0.95 0.96 0.95 0.95 0.99
0.03 0.07 0.04 0.04 0.09 0.17 0.29 0.40 0.53 0.71 0.65 0.70 0.91 1.08 0.95 0.94 0.96 1.05 1.23 1.31 1.29 1.20 1.10 1.09 1.14 1.21 1.23 1.08 0.90 0.86 1.00 1.05 0.99 0.96 0.98 0.97 0.88 0.82 0.79 0.77 0.74 0.66 0.64 0.67
0.03 0.11 0.14 0.13 0.25 0.35 0.54 0.61 0.49 0.47 0.53 0.62 0.84 0.85 0.63 0.58 0.73 0.89 1.05 1.13 1.06 1.00 1.08 1.04 0.96 0.90 0.93 0.89 0.82 0.79 0.93 1.06 1.08 1.05 0.89 0.80 0.76 0.72 0.71 0.62 0.58 0.55 0.50 0.50
0.02 0.09 0.15 0.25 0.31 0.41 0.63 0.71 0.55 0.44 0.51 0.50 0.57 0.51 0.36 0.42 0.59 0.66 0.69 0.70 0.70 0.75 0.78 0.72 0.67 0.62 0.61 0.65 0.69 0.75 0.86 0.93 1.05 1.16 1.03 0.87 0.78 0.70 0.65 0.58 0.55 0.51 0.49 0.52
0.01 0.01 0.03 0.07 0.09 0.17 0.36 0.47 0.38 0.27 0.25 0.31 0.33 0.34 0.37 0.46 0.55 0.54 0.48 0.42 0.41 0.41 0.39 0.38 0.38 0.36 0.35 0.35 0.36 0.45 0.58 0.74 0.92 1.11 1.09 0.93 0.86 0.79 0.66 0.60 0.61 0.58 0.61 0.57
0.00 0.00 0.01 0.02 0.04 0.08 0.17 0.20 0.16 0.09 0.12 0.23 0.29 0.36 0.40 0.46 0.53 0.50 0.42 0.35 0.28 0.26 0.26 0.25 0.23 0.22 0.17 0.16 0.18 0.20 0.28 0.45 0.61 0.76 0.83 0.79 0.70 0.61 0.58 0.58 0.56 0.52 0.51 0.47
0.00 0.00 0.02 0.01 0.02 0.04 0.11 0.11 0.12 0.15 0.15 0.16 0.26 0.38 0.46 0.58 0.76 0.67 0.50 0.41 0.28 0.21 0.20 0.19 0.20 0.19 0.18 0.17 0.16 0.16 0.20 0.26 0.35 0.48 0.57 0.56 0.50 0.44 0.41 0.45 0.46 0.43 0.39 0.40
0.00 0.02 0.06 0.05 0.08 0.19 0.24 0.19 0.26 0.34 0.26 0.22 0.29 0.37 0.50 0.83 1.03 0.66 0.42 0.38 0.31 0.21 0.18 0.17 0.17 0.16 0.15 0.13 0.12 0.13 0.16 0.18 0.19 0.23 0.27 0.29 0.29 0.28 0.29 0.32 0.32 0.33 0.32 0.30
0.00 0.03 0.08 0.10 0.13 0.39 0.36 0.19 0.31 0.36 0.31 0.24 0.32 0.37 0.40 0.45 0.41 0.25 0.15 0.16 0.18 0.13 0.10 0.08 0.08 0.07 0.05 0.05 0.04 0.05 0.06 0.07 0.07 0.07 0.09 0.11 0.13 0.15 0.18 0.19 0.22 0.30 0.33 0.34
0.00 0.02 0.06 0.07 0.08 0.24 0.27 0.10 0.17 0.26 0.31 0.13 0.14 0.16 0.11 0.07 0.08 0.11 0.10 0.06 0.05 0.03 0.02 0.02 0.02 0.02 0.01 0.01 0.01 0.01 0.01 0.01 0.02 0.01 0.01 0.02 0.02 0.03 0.06 0.09 0.11 0.17 0.24 0.31
0.00 0.01 0.02 0.02 0.04 0.07 0.05 0.05 0.10 0.25 0.28 0.07 0.04 0.03 0.01 0.01 0.01 0.05 0.10 0.06 0.03 0.01 0.00 0.00 0.00 0.00 0.00 0.00 0.00 0.00 0.00 0.01 0.01 0.01 0.01 0.01 0.01 0.01 0.01 0.02 0.03 0.06 0.11 0.15
0.00 0.01 0.01 0.01 0.02 0.03 0.01 0.05 0.11 0.11 0.05 0.02 0.01 0.01 0.00 0.00 0.00 0.02 0.05 0.03 0.02 0.01 0.00 0.00 0.01 0.00 0.00 0.00 0.00 0.00 0.00 0.00 0.01 0.01 0.01 0.01 0.01 0.01 0.01 0.02 0.02 0.02 0.04 0.07
0.00 0.01 0.01 0.01 0.02 0.02 0.01 0.03 0.03 0.02 0.01 0.00 0.00 0.00 0.00 0.00 0.00 0.00 0.01 0.02 0.01 0.00 0.00 0.00 0.01 0.01 0.00 0.00 0.00 0.00 0.00 0.00 0.00 0.01 0.01 0.01 0.01 0.01 0.01 0.02 0.02 0.02 0.04 0.06
0.00 0.00 0.01 0.01 0.01 0.00 0.00 0.01 0.00 0.01 0.01 0.00 0.00 0.00 0.00 0.00 0.00 0.00 0.00 0.01 0.01 0.00 0.00 0.00 0.00 0.01 0.01 0.00 0.00 0.00 0.00 0.00 0.00 0.00 0.01 0.01 0.01 0.02 0.01 0.02 0.03 0.03 0.03 0.06
0.00 0.01 0.01 0.01 0.00 0.00 0.00 0.00 0.00 0.00 0.00 0.00 0.00 0.00 0.00 0.00 0.00 0.00 0.00 0.01 0.00 0.00 0.00 0.00 0.00 0.01 0.00 0.00 0.00 0.00 0.00 0.00 0.00 0.00 0.00 0.01 0.01 0.02 0.02 0.02 0.02 0.03 0.03 0.06
0.00 0.00 0.01 0.00 0.00 0.00 0.00 0.00 0.00 0.01 0.00 0.00 0.00 0.00 0.00 0.00 0.00 0.00 0.00 0.00 0.00 0.00 0.00 0.00 0.00 0.00 0.01 0.00 0.00 0.00 0.00 0.00 0.00 0.00 0.00 0.01 0.01 0.02 0.03 0.04 0.03 0.02 0.02 0.04